• In Österreich
  • Länderverzeichnis
  • Für 7 Tage
  • Wassertemperatur
  • Satellitenkarten
  • Wetterkarte
  • News
  • Widgets
  • user-avatar
    Anmelden

    Stündliche Wetter Tirana

    Heute, 25 Mai, Freitag

    Zeit Temperatur Niederschläge Wind Luftdruck Luftfeuchtigkeit
    00:00 +19°C° 0 mm 1 m/S 753 mmHg 84%
    01:00 +19°C° 0 mm 1 m/S 753 mmHg 84%
    02:00 +19°C° 0 mm 1 m/S 753 mmHg 83%
    03:00 +18°C° 0 mm 2 m/S 752 mmHg 82%
    04:00 +18°C° 0 mm 2 m/S 752 mmHg 81%
    05:00 +20°C° 0 mm 1 m/S 752 mmHg 76%
    06:00 +22°C° 0 mm 1 m/S 752 mmHg 71%
    07:00 +24°C° 0 mm 1 m/S 752 mmHg 66%
    08:00 +25°C° 0 mm 1 m/S 752 mmHg 61%
    09:00 +27°C° 0 mm 2 m/S 752 mmHg 56%
    10:00 +28°C° 0 mm 2 m/S 752 mmHg 51%
    11:00 +29°C° 0 mm 3 m/S 752 mmHg 51%
    12:00 +29°C° 0 mm 3 m/S 752 mmHg 51%
    13:00 +29°C° 0 mm 4 m/S 752 mmHg 51%
    14:00 +29°C° 0,1 mm 4 m/S 752 mmHg 53%
    15:00 +29°C° 0,1 mm 5 m/S 752 mmHg 56%
    16:00 +28°C° 0,1 mm 5 m/S 751 mmHg 58%
    17:00 +26°C° 0,1 mm 4 m/S 752 mmHg 66%
    18:00 +25°C° 0,1 mm 3 m/S 752 mmHg 73%
    19:00 +22°C° 0,1 mm 3 m/S 752 mmHg 80%
    20:00 +21°C° 0 mm 3 m/S 753 mmHg 80%
    21:00 +21°C° 0 mm 2 m/S 753 mmHg 79%
    22:00 +20°C° 0 mm 2 m/S 753 mmHg 79%
    23:00 +20°C° 0 mm 2 m/S 753 mmHg 78%

    Morgen, 26 Mai, Samstag

    Zeit Temperatur Niederschläge Wind Luftdruck Luftfeuchtigkeit
    00:00 +20°C° 0 mm 2 m/S 753 mmHg 76%
    01:00 +20°C° 0 mm 2 m/S 754 mmHg 75%
    02:00 +19°C° 0 mm 2 m/S 754 mmHg 75%
    03:00 +19°C° 0 mm 2 m/S 753 mmHg 74%
    04:00 +19°C° 0 mm 2 m/S 753 mmHg 74%
    05:00 +21°C° 0 mm 2 m/S 754 mmHg 70%
    06:00 +23°C° 0 mm 2 m/S 754 mmHg 67%
    07:00 +25°C° 0 mm 2 m/S 754 mmHg 64%
    08:00 +27°C° 0 mm 2 m/S 754 mmHg 58%
    09:00 +28°C° 0 mm 2 m/S 754 mmHg 53%
    10:00 +30°C° 0 mm 2 m/S 755 mmHg 47%
    11:00 +30°C° 0 mm 3 m/S 754 mmHg 47%
    12:00 +31°C° 0 mm 3 m/S 754 mmHg 46%
    13:00 +32°C° 0 mm 4 m/S 754 mmHg 45%
    14:00 +32°C° 0,1 mm 4 m/S 754 mmHg 47%
    15:00 +30°C° 0,1 mm 5 m/S 754 mmHg 50%
    16:00 +30°C° 0,1 mm 5 m/S 754 mmHg 53%
    17:00 +28°C° 0,1 mm 4 m/S 754 mmHg 60%
    18:00 +26°C° 0,1 mm 4 m/S 754 mmHg 67%
    19:00 +24°C° 0,1 mm 3 m/S 754 mmHg 75%
    20:00 +24°C° 0 mm 3 m/S 754 mmHg 75%
    21:00 +22°C° 0 mm 3 m/S 755 mmHg 75%
    22:00 +21°C° 0 mm 2 m/S 755 mmHg 75%
    23:00 +21°C° 0 mm 2 m/S 755 mmHg 74%

    übermorgen, 27 Mai, Sonntag

    Zeit Temperatur Niederschläge Wind Luftdruck Luftfeuchtigkeit
    00:00 +21°C° 0 mm 2 m/S 755 mmHg 74%
    01:00 +20°C° 0 mm 2 m/S 755 mmHg 73%
    02:00 +20°C° 0 mm 2 m/S 755 mmHg 73%
    03:00 +20°C° 0 mm 2 m/S 755 mmHg 73%
    04:00 +20°C° 0 mm 2 m/S 755 mmHg 73%
    05:00 +21°C° 0 mm 2 m/S 755 mmHg 69%
    06:00 +24°C° 0 mm 2 m/S 755 mmHg 66%
    07:00 +26°C° 0 mm 2 m/S 755 mmHg 63%
    08:00 +28°C° 0 mm 2 m/S 755 mmHg 57%
    09:00 +30°C° 0 mm 2 m/S 755 mmHg 51%
    10:00 +31°C° 0 mm 1 m/S 755 mmHg 44%
    11:00 +33°C° 0 mm 3 m/S 755 mmHg 44%
    12:00 +33°C° 0 mm 4 m/S 755 mmHg 43%
    13:00 +33°C° 0 mm 5 m/S 755 mmHg 42%
    14:00 +33°C° 0 mm 5 m/S 754 mmHg 46%
    15:00 +32°C° 0 mm 5 m/S 754 mmHg 51%
    16:00 +30°C° 0 mm 5 m/S 754 mmHg 55%
    17:00 +28°C° 0 mm 4 m/S 754 mmHg 63%
    18:00 +26°C° 0 mm 3 m/S 754 mmHg 70%
    19:00 +24°C° 0 mm 2 m/S 754 mmHg 77%
    20:00 +24°C° 0 mm 1 m/S 754 mmHg 76%
    21:00 +24°C° 0 mm 1 m/S 755 mmHg 75%
    22:00 +23°C° 0 mm 1 m/S 755 mmHg 75%
    23:00 +23°C° 0 mm 1 m/S 755 mmHg 74%

    28 Mai, Montag

    Zeit Temperatur Niederschläge Wind Luftdruck Luftfeuchtigkeit
    00:00 +23°C° 0 mm 1 m/S 755 mmHg 73%
    01:00 +22°C° 0 mm 1 m/S 755 mmHg 72%
    02:00 +22°C° 0 mm 1 m/S 755 mmHg 72%
    03:00 +22°C° 0 mm 1 m/S 755 mmHg 71%
    04:00 +22°C° 0 mm 1 m/S 755 mmHg 71%
    05:00 +23°C° 0 mm 1 m/S 755 mmHg 67%
    06:00 +25°C° 0 mm 1 m/S 755 mmHg 64%
    07:00 +27°C° 0 mm 1 m/S 755 mmHg 60%
    08:00 +28°C° 0 mm 1 m/S 755 mmHg 57%
    09:00 +29°C° 0 mm 1 m/S 755 mmHg 53%
    10:00 +31°C° 0 mm 1 m/S 755 mmHg 49%
    11:00 +31°C° 0,1 mm 2 m/S 755 mmHg 48%
    12:00 +31°C° 0,1 mm 3 m/S 755 mmHg 48%
    13:00 +33°C° 0,1 mm 4 m/S 754 mmHg 48%
    14:00 +32°C° 0,1 mm 4 m/S 754 mmHg 50%
    15:00 +31°C° 0,1 mm 3 m/S 754 mmHg 51%
    16:00 +30°C° 0,1 mm 3 m/S 753 mmHg 53%
    17:00 +29°C° 0 mm 3 m/S 754 mmHg 60%
    18:00 +27°C° 0 mm 3 m/S 754 mmHg 67%
    19:00 +25°C° 0 mm 2 m/S 754 mmHg 74%
    20:00 +25°C° 0 mm 2 m/S 754 mmHg 73%
    21:00 +24°C° 0 mm 2 m/S 754 mmHg 73%
    22:00 +23°C° 0 mm 1 m/S 755 mmHg 73%
    23:00 +23°C° 0 mm 1 m/S 755 mmHg 72%

    29 Mai, Dienstag

    Zeit Temperatur Niederschläge Wind Luftdruck Luftfeuchtigkeit
    00:00 +23°C° 0 mm 1 m/S 754 mmHg 72%
    01:00 +22°C° 0 mm 1 m/S 754 mmHg 71%
    02:00 +22°C° 0 mm 1 m/S 754 mmHg 71%
    03:00 +22°C° 0 mm 1 m/S 754 mmHg 71%
    04:00 +21°C° 0 mm 2 m/S 754 mmHg 71%
    05:00 +23°C° 0 mm 1 m/S 754 mmHg 68%
    06:00 +25°C° 0 mm 1 m/S 754 mmHg 65%
    07:00 +26°C° 0 mm 1 m/S 754 mmHg 63%
    08:00 +28°C° 0 mm 1 m/S 754 mmHg 57%
    09:00 +29°C° 0 mm 1 m/S 754 mmHg 52%
    10:00 +31°C° 0 mm 1 m/S 754 mmHg 47%
    11:00 +31°C° 0,1 mm 1 m/S 754 mmHg 47%
    12:00 +31°C° 0,1 mm 2 m/S 754 mmHg 47%
    13:00 +33°C° 0,1 mm 3 m/S 753 mmHg 47%
    14:00 +31°C° 0,1 mm 3 m/S 753 mmHg 49%
    15:00 +31°C° 0,1 mm 3 m/S 753 mmHg 51%
    16:00 +30°C° 0,1 mm 3 m/S 753 mmHg 53%
    17:00 +29°C° 0,1 mm 3 m/S 753 mmHg 60%
    18:00 +27°C° 0,1 mm 2 m/S 753 mmHg 66%
    19:00 +25°C° 0,1 mm 2 m/S 753 mmHg 73%
    20:00 +25°C° 0 mm 2 m/S 753 mmHg 73%
    21:00 +24°C° 0 mm 1 m/S 753 mmHg 73%
    22:00 +23°C° 0 mm 1 m/S 753 mmHg 73%
    23:00 +23°C° 0 mm 1 m/S 753 mmHg 73%

    30 Mai, Mittwoch

    Zeit Temperatur Niederschläge Wind Luftdruck Luftfeuchtigkeit
    00:00 +23°C° 0 mm 1 m/S 753 mmHg 73%
    01:00 +22°C° 0 mm 1 m/S 753 mmHg 73%
    02:00 +22°C° 0 mm 1 m/S 753 mmHg 73%
    03:00 +22°C° 0 mm 1 m/S 753 mmHg 72%
    04:00 +21°C° 0 mm 1 m/S 753 mmHg 72%
    05:00 +23°C° 0 mm 1 m/S 753 mmHg 68%
    06:00 +25°C° 0 mm 1 m/S 753 mmHg 65%
    07:00 +26°C° 0 mm 1 m/S 753 mmHg 61%
    08:00 +28°C° 0 mm 1 m/S 753 mmHg 56%
    09:00 +29°C° 0 mm 1 m/S 753 mmHg 51%
    10:00 +31°C° 0 mm 1 m/S 753 mmHg 47%
    11:00 +31°C° 0 mm 2 m/S 752 mmHg 46%
    12:00 +31°C° 0 mm 3 m/S 752 mmHg 46%
    13:00 +33°C° 0 mm 3 m/S 752 mmHg 45%
    14:00 +31°C° 0 mm 3 m/S 752 mmHg 47%
    15:00 +31°C° 0 mm 3 m/S 752 mmHg 49%
    16:00 +30°C° 0 mm 3 m/S 751 mmHg 51%
    17:00 +28°C° 0 mm 3 m/S 752 mmHg 58%
    18:00 +26°C° 0 mm 2 m/S 752 mmHg 65%
    19:00 +25°C° 0 mm 1 m/S 752 mmHg 71%
    20:00 +24°C° 0 mm 1 m/S 752 mmHg 71%
    21:00 +24°C° 0 mm 1 m/S 752 mmHg 72%
    22:00 +23°C° 0 mm 1 m/S 752 mmHg 72%
    23:00 +23°C° 0 mm 1 m/S 752 mmHg 72%
    Mehr zeigen